Time,TemperatureF,DewpointF,PressureIn,WindDirection,WindDirectionDegrees,WindSpeedMPH,WindSpeedGustMPH,Humidity,HourlyPrecipIn,Conditions,Clouds,dailyrainin,SoftwareType,DateUTC
2013-05-07 00:00:00,37.0,-99.9,-100.00,North,-999,-999.0,-999.0,-999,-99.99,,,0.00,,2013-05-07 06:00:00,
2013-05-07 00:53:00,37.0,-99.9,-100.00,North,-999,-999.0,-999.0,-999,-99.99,,,0.00,,2013-05-07 06:53:00,
2013-05-07 01:00:00,36.0,36.0,-100.00,SE,131,0.0,1.0,97,-99.99,,,0.00,,2013-05-07 07:00:00,
2013-05-07 01:53:00,36.0,-99.9,-100.00,North,-999,-999.0,-999.0,-999,-99.99,,,0.00,,2013-05-07 07:53:00,
2013-05-07 02:00:00,36.0,35.0,-100.00,NE,48,0.0,1.0,97,-99.99,,,-99.99,,2013-05-07 08:00:00,
2013-05-07 03:00:00,38.0,37.0,-100.00,SSW,192,1.0,3.0,97,-99.99,,,-99.99,,2013-05-07 09:00:00,
2013-05-07 04:00:00,39.0,36.0,-100.00,WSW,251,1.0,3.0,88,-99.99,,,0.00,,2013-05-07 10:00:00,
2013-05-07 05:00:00,38.0,34.0,-100.00,WSW,247,1.0,4.0,84,-99.99,,,-99.99,,2013-05-07 11:00:00,
2013-05-07 06:00:00,-999.0,-99.9,-100.00,WSW,245,1.0,4.0,83,-99.99,,,-99.99,,2013-05-07 12:00:00,
2013-05-07 07:00:00,38.0,34.0,-100.00,SW,235,1.0,4.0,85,-99.99,,,0.00,,2013-05-07 13:00:00,
2013-05-07 08:00:00,42.0,37.0,-100.00,SW,221,1.0,3.0,81,-99.99,,,-99.99,,2013-05-07 14:00:00,
2013-05-07 11:00:00,54.0,33.0,-100.00,NW,305,2.0,4.0,45,-99.99,,,-99.99,,2013-05-07 17:00:00,
2013-05-07 12:00:00,56.0,27.0,-100.00,WNW,303,2.0,6.0,33,-99.99,,,0.00,,2013-05-07 18:00:00,
2013-05-07 13:00:00,57.0,28.0,-100.00,WNW,302,2.0,6.0,33,-99.99,,,0.00,,2013-05-07 19:00:00,
2013-05-07 14:00:00,60.0,28.0,-100.00,WNW,301,2.0,5.0,29,-99.99,,,-99.99,,2013-05-07 20:00:00,
2013-05-07 15:00:00,58.0,21.0,-100.00,WNW,289,2.0,8.0,23,-99.99,,,0.01,,2013-05-07 21:00:00,
2013-05-07 16:00:00,57.0,20.0,-100.00,WNW,303,2.0,4.0,24,-99.99,,,0.01,,2013-05-07 22:00:00,
2013-05-07 17:00:00,57.0,18.0,-100.00,NW,318,1.0,5.0,22,-99.99,,,0.00,,2013-05-07 23:00:00,
2013-05-07 18:00:00,54.0,22.0,-100.00,WNW,286,2.0,4.0,29,-99.99,,,0.00,,2013-05-08 00:00:00,
2013-05-07 19:00:00,50.0,23.0,-100.00,West,279,1.0,3.0,35,-99.99,,,0.00,,2013-05-08 01:00:00,
2013-05-07 20:00:00,45.0,26.0,-100.00,SSE,161,0.0,2.0,46,-99.99,,,0.00,,2013-05-08 02:00:00,
2013-05-07 21:00:00,42.0,27.0,-100.00,SE,146,0.0,2.0,54,-99.99,,,0.00,,2013-05-08 03:00:00,
2013-05-07 22:00:00,41.0,-99.9,-100.00,North,-999,-999.0,-999.0,-999,-99.99,,,0.00,,2013-05-08 04:00:00,
2013-05-07 23:00:00,40.0,27.0,-100.00,SSE,153,0.0,1.0,61,-99.99,,,0.00,,2013-05-08 05:00:00,